Theta_e
313 313 318 324 324 326 328 331 333 336 333 328 333 326 320 322 320 323 323 323 325 321 320 322 321 321 321 323 323 324 322 323 324 321 331 341 327 321 324 331 334 333 338 340 338 335 335 336 336 337 339 340 340 340 340 341 341 341 339 335 335 336 337 336 336 336 337 338 336 336 337 338 338 339 338 338 336 335 336 337 339 340 340 340 340 341 341 341 339 338 337 337 336 335 331 331 331
313 314 320 325 324 325 332 334 329 331 332 326 328 323 318 325 324 323 323 323 324 321 323 323 322 323 322 322 321 322 322 321 324 326 333 334 326 323 325 332 336 334 337 340 338 335 334 336 335 336 338 339 340 340 341 341 341 341 337 334 335 336 337 336 336 336 337 336 336 338 339 340 340 340 340 340 339 338 338 338 339 340 340 340 340 340 340 340 338 338 337 335 335 336 334 333 331
314 318 322 323 327 325 331 335 330 329 328 320 320 324 320 322 322 321 323 322 323 322 323 322 322 323 321 322 322 323 325 322 324 334 335 329 330 327 325 335 336 336 338 338 338 335 334 335 335 335 336 337 339 340 340 340 341 340 334 333 336 335 337 337 336 337 336 335 337 340 340 340 340 340 340 340 339 338 338 339 339 339 340 340 340 340 339 338 337 336 335 335 334 335 336 335 334
319 323 325 324 331 332 332 332 334 327 322 320 317 322 323 320 321 320 323 323 325 322 321 321 322 322 321 323 322 322 324 322 321 333 335 327 331 326 325 335 336 338 338 339 338 334 335 335 334 334 335 336 338 339 340 341 341 340 334 333 336 335 336 337 336 336 335 335 339 340 340 340 341 340 340 340 340 339 338 339 339 339 340 340 340 339 338 336 335 333 332 334 335 334 335 335 335
324 326 325 325 330 332 333 329 331 322 319 325 317 318 321 320 322 321 322 323 325 323 321 322 322 322 320 323 323 321 323 323 321 329 331 325 330 326 324 332 336 338 340 341 337 335 335 334 335 334 335 335 337 339 339 341 340 340 336 333 335 335 336 337 336 336 336 337 339 340 340 340 340 340 340 340 339 339 338 338 339 339 339 339 338 337 336 334 333 331 329 331 333 334 335 334 333
323 325 325 325 326 327 329 325 328 324 324 328 318 318 319 319 322 321 322 322 323 323 322 321 322 322 321 323 321 321 323 323 323 328 330 326 327 324 323 330 335 338 341 342 338 335 334 335 335 334 335 335 337 339 338 340 340 339 338 335 335 336 336 337 336 337 337 338 339 340 340 340 340 340 340 340 339 338 337 337 338 338 338 337 337 335 334 332 331 331 329 328 327 329 331 330 326
322 326 328 328 327 325 325 322 326 326 328 327 319 319 318 320 323 322 323 321 321 322 321 321 321 321 323 323 320 322 322 320 323 326 327 323 322 323 323 329 335 338 340 342 340 336 334 335 335 335 336 335 337 339 338 339 339 339 338 336 335 336 336 336 337 338 338 338 339 339 340 340 341 340 340 339 338 336 336 336 337 337 337 336 334 333 332 332 330 330 329 328 325 321 320 318 314
322 326 331 333 331 328 325 324 327 327 327 325 320 320 318 321 323 322 322 321 321 322 322 322 321 322 323 321 322 324 322 322 323 323 322 320 320 321 322 327 334 337 339 342 341 338 335 335 335 336 336 336 337 338 339 339 340 338 338 337 336 337 337 336 337 338 339 339 339 339 339 340 340 340 339 339 338 336 335 335 336 336 335 334 333 332 331 330 330 329 328 328 325 316 311 309 306
322 324 331 332 329 329 328 328 330 328 326 322 319 320 321 321 323 321 322 322 321 323 324 323 322 322 323 322 324 324 323 325 323 321 320 319 319 320 322 326 331 335 338 341 341 340 337 335 335 336 336 336 336 338 339 340 340 339 338 338 336 337 337 337 337 338 339 339 339 339 340 340 340 340 339 338 337 336 335 335 334 334 334 333 332 331 330 330 329 329 327 326 322 311 306 305 301
326 323 329 334 330 328 328 329 329 328 323 320 318 320 323 322 322 321 321 322 321 322 322 322 322 322 322 321 323 324 325 324 321 321 319 318 318 318 320 323 330 334 335 340 342 341 340 337 335 336 336 336 336 337 339 340 340 338 338 337 336 337 337 337 336 338 338 339 339 339 340 340 339 339 338 337 336 336 335 334 332 332 332 330 330 330 329 329 329 327 326 324 318 306 301 300 299
334 328 329 333 328 325 326 326 326 328 323 320 319 319 322 322 321 322 321 321 321 321 321 319 320 322 322 322 324 324 323 323 320 319 319 319 317 317 319 321 327 334 334 337 341 341 341 340 338 336 336 336 336 337 339 339 339 338 338 337 337 337 337 337 336 337 338 338 338 338 339 339 339 338 337 337 336 335 334 333 331 330 329 327 327 328 327 327 327 325 324 320 309 301 299 299 299
334 334 330 327 325 325 325 323 324 330 329 323 320 319 321 322 321 321 321 319 320 320 321 319 319 321 321 323 325 323 321 321 319 318 321 321 318 317 320 321 324 331 333 334 339 340 341 341 340 339 336 336 337 337 339 339 339 338 338 338 338 337 337 337 336 336 337 338 338 338 339 339 339 338 337 336 335 334 334 333 331 329 327 326 324 326 326 325 325 324 322 314 302 299 298 299 299
329 332 328 326 329 325 322 324 327 332 332 323 319 321 320 321 320 320 320 319 320 319 321 320 319 320 321 323 322 322 322 322 321 319 320 321 318 318 321 324 325 328 332 334 338 340 340 341 340 340 338 337 337 337 338 339 339 339 338 339 338 338 338 338 337 337 337 337 338 339 339 339 338 337 337 336 335 334 333 332 330 328 327 325 323 323 325 324 324 323 318 307 299 298 298 298 298
327 328 325 328 332 326 323 325 327 326 325 323 318 321 319 319 320 320 319 318 320 320 320 320 319 319 320 322 323 327 325 322 324 321 319 319 319 323 324 325 326 328 331 334 337 339 340 340 340 340 339 338 337 337 337 339 339 339 339 339 339 338 338 338 337 337 337 337 338 339 338 338 337 337 336 335 334 333 332 331 329 327 325 324 322 322 324 323 323 321 314 304 299 298 298 298 298
324 331 327 327 330 329 327 325 328 323 322 325 318 319 319 318 320 319 319 318 320 320 318 317 317 318 319 319 324 331 325 321 325 321 319 321 321 326 329 327 327 329 330 334 337 338 339 339 339 338 339 338 337 337 337 338 339 339 338 338 339 338 338 338 337 337 337 337 338 338 338 338 337 336 335 334 334 332 331 329 328 325 323 324 322 321 323 323 322 319 311 303 299 298 298 298 298
326 337 332 327 329 328 327 325 327 324 323 324 318 319 319 318 319 318 319 318 320 320 318 318 317 318 319 318 320 324 322 321 323 319 320 324 323 326 331 331 328 329 331 334 336 338 338 338 338 338 338 338 337 337 337 338 339 339 338 338 338 338 338 338 338 337 337 337 338 338 337 337 336 336 334 333 332 331 330 328 327 325 321 323 321 320 323 322 320 317 311 302 298 298 298 298 298
333 340 331 327 330 329 329 325 320 321 322 322 318 318 317 316 318 317 318 317 319 320 319 319 317 317 318 318 317 318 321 321 320 319 321 325 326 325 330 332 330 330 331 333 335 337 337 337 337 336 336 336 336 336 336 338 338 339 338 338 338 338 338 338 338 337 337 337 337 337 337 336 335 334 333 332 331 329 328 327 327 325 319 318 319 320 322 322 319 316 310 301 297 298 297 297 298
335 336 327 327 330 328 329 323 317 319 319 319 318 317 316 316 316 317 317 318 319 319 319 317 316 317 316 316 315 318 321 320 318 319 322 324 326 327 329 331 331 330 331 332 334 336 337 337 336 335 335 334 334 335 336 337 338 338 338 338 338 338 338 338 338 337 337 337 336 337 336 336 335 334 332 331 330 328 328 327 326 325 317 312 316 319 321 321 319 315 309 299 297 298 297 297 297
332 332 326 332 335 330 325 319 317 317 316 318 319 317 318 317 315 316 316 317 318 317 317 317 317 317 315 314 314 319 320 319 319 319 321 322 324 326 326 328 330 329 328 329 329 333 336 336 336 335 334 332 332 333 335 337 337 338 338 338 338 338 338 337 337 337 337 336 336 336 335 334 333 333 331 330 329 328 327 326 325 324 316 309 314 319 320 319 316 314 308 298 297 297 297 297 297
331 328 326 335 334 326 322 319 318 317 316 318 319 318 318 318 316 316 315 317 319 318 318 317 318 317 316 316 316 319 320 319 320 320 320 321 321 322 323 325 327 326 323 322 323 327 332 335 335 334 334 333 332 333 335 336 337 337 338 338 338 338 338 337 337 337 336 336 335 335 334 333 332 331 330 328 328 327 326 326 325 324 316 309 314 318 319 317 315 314 307 297 298 297 297 297 296
327 325 328 335 328 321 323 322 319 318 319 318 319 319 319 318 316 315 316 317 317 318 318 318 318 316 316 317 316 317 318 318 319 321 320 320 321 321 321 322 322 322 319 319 320 323 327 331 333 334 334 335 333 333 335 336 336 336 337 337 338 338 337 336 336 336 336 335 334 334 333 332 331 330 328 327 327 326 326 325 324 324 317 310 314 317 318 316 314 314 306 297 298 297 297 296 296
323 324 327 330 324 321 321 320 318 319 319 319 320 319 318 318 316 315 316 316 315 316 317 318 318 316 316 315 315 316 318 318 317 317 319 318 319 320 320 321 320 321 321 321 321 321 323 326 330 332 334 335 334 334 334 335 336 336 336 337 338 338 337 336 335 335 334 334 333 333 332 330 330 329 328 327 327 326 325 325 324 323 318 311 313 316 317 315 311 309 303 299 298 296 297 296 296
322 324 323 323 321 319 318 317 317 317 317 318 319 319 318 317 317 316 315 316 315 315 315 317 316 315 314 313 314 317 321 323 317 314 318 318 317 319 320 320 321 321 322 323 322 322 322 323 325 328 332 334 335 335 334 335 337 336 336 336 337 337 337 336 335 334 333 333 333 332 331 330 329 328 327 327 326 326 325 324 323 322 317 310 311 313 315 314 309 306 303 300 297 296 297 296 296
321 323 323 322 321 320 318 318 317 317 317 318 318 318 317 317 318 317 316 317 315 315 314 315 314 312 312 313 315 317 319 319 314 314 316 318 318 318 318 319 319 320 321 322 323 324 323 323 323 325 329 332 334 335 335 335 335 336 336 336 336 335 335 335 334 334 333 333 332 331 330 329 328 327 327 326 326 325 324 323 322 320 314 310 311 312 313 313 310 307 303 301 298 296 296 296 297
318 319 321 320 319 319 317 317 316 316 315 316 316 317 317 318 318 317 317 317 316 315 314 314 314 313 314 315 315 316 318 316 313 313 314 316 317 318 318 318 318 319 320 321 322 324 324 324 324 324 326 329 332 334 335 335 335 335 335 335 335 334 334 332 331 332 332 332 331 330 330 329 328 327 326 326 325 325 323 322 321 319 314 310 310 311 311 311 309 307 303 302 299 296 296 296 297
317 316 317 317 316 316 315 316 315 315 314 314 314 315 315 316 317 317 317 317 317 315 314 315 314 315 315 315 316 316 318 317 313 312 313 314 316 317 318 318 318 318 319 319 321 323 324 325 325 325 325 326 329 333 334 334 334 335 335 334 334 334 333 332 331 331 330 330 330 329 329 328 327 326 326 325 325 324 323 322 321 318 314 311 310 309 309 309 308 306 303 302 299 296 296 296 296
316 315 316 316 316 315 314 315 314 314 314 313 313 314 314 315 317 316 316 317 317 315 315 314 314 315 315 315 317 315 315 315 312 312 313 313 314 316 317 318 318 318 318 319 320 320 323 326 326 326 325 325 327 330 332 333 334 334 334 334 333 333 332 332 331 330 330 329 329 329 328 328 327 326 325 324 324 323 322 321 320 318 315 312 310 308 308 308 307 305 302 301 299 296 296 297 296
315 315 315 316 316 315 314 314 314 313 313 314 314 313 313 314 316 316 315 316 315 315 314 314 314 314 315 315 315 315 315 313 311 311 311 311 313 315 316 317 317 317 318 319 318 319 322 326 327 326 326 326 327 329 331 332 332 332 333 333 332 332 331 331 330 330 330 329 329 328 328 327 327 326 325 324 323 322 321 321 320 318 316 312 311 309 308 308 308 306 305 303 299 296 296 296 295
315 315 315 316 315 314 315 314 314 313 313 316 314 314 316 316 316 317 315 315 314 315 315 315 314 314 314 315 315 317 315 311 310 310 309 311 312 313 315 316 317 317 318 318 318 319 321 325 326 327 327 326 327 328 330 331 332 332 332 331 331 331 330 330 329 329 329 328 328 327 327 326 326 326 324 323 322 322 321 320 319 318 316 313 311 311 310 310 310 309 308 305 300 296 296 296 295
315 314 314 316 316 316 316 314 315 313 313 316 315 316 321 319 317 318 316 315 315 316 316 315 315 314 314 314 316 318 314 309 310 310 310 311 311 312 312 313 315 316 318 318 319 319 319 323 325 327 327 327 327 327 329 330 331 331 331 331 330 330 330 329 329 328 328 328 328 327 326 326 325 325 324 323 322 321 321 320 319 317 316 314 312 312 312 312 311 310 309 306 301 297 296 296 295
314 313 316 317 316 320 319 315 316 315 314 315 314 317 321 319 318 319 317 317 316 317 317 317 316 314 314 315 315 315 311 309 310 310 310 310 310 310 310 310 312 313 316 317 319 319 319 320 323 326 327 327 327 327 328 329 330 331 330 330 329 329 329 329 329 328 328 327 327 327 326 325 325 324 323 323 322 321 320 319 318 316 315 315 313 313 314 313 312 311 310 306 300 298 297 296 295
315 314 322 322 317 321 321 316 316 316 314 313 313 318 319 317 317 318 318 318 317 317 317 316 315 314 314 313 312 311 310 310 310 310 309 309 309 309 309 309 310 311 314 317 318 319 319 319 322 325 326 327 327 328 328 328 329 330 330 329 328 328 328 328 328 328 327 327 326 326 325 325 324 324 323 322 322 321 320 319 317 316 315 315 314 314 314 313 312 310 309 304 300 298 297 296 296
320 316 322 324 319 319 320 319 318 317 316 313 313 317 318 317 318 319 318 317 316 316 315 314 314 314 313 311 310 311 310 309 309 308 308 307 308 308 308 308 309 310 312 315 317 318 319 320 322 324 325 326 326 327 327 328 328 328 329 328 327 327 327 328 328 327 327 326 326 325 325 325 324 324 323 322 322 320 319 317 316 315 315 315 315 314 314 313 312 310 306 302 299 298 297 297 296
324 320 319 322 320 318 320 323 321 317 317 316 315 315 314 316 318 318 317 316 315 314 314 315 315 313 312 311 310 310 309 308 307 307 307 307 307 307 307 308 308 309 310 312 315 316 318 320 321 321 322 324 324 325 325 325 326 326 326 326 326 326 326 327 326 326 326 325 325 324 324 324 323 323 322 322 321 319 318 317 315 315 315 315 315 314 314 313 311 308 304 301 299 297 297 297 297
324 323 321 322 321 320 320 320 320 319 318 318 318 317 316 316 317 316 316 315 315 314 314 315 314 312 311 311 311 309 308 307 306 305 305 305 306 306 306 307 307 308 309 310 312 315 316 316 316 316 318 320 322 323 324 324 324 324 324 324 324 324 325 325 325 325 324 324 324 324 324 323 323 322 322 321 320 318 317 316 315 314 314 315 315 314 313 311 309 307 304 301 298 297 297 297 297
321 322 321 321 321 321 320 318 319 319 318 319 319 318 318 318 318 317 316 315 315 315 314 314 313 312 311 310 309 308 307 306 304 304 304 304 304 305 305 305 306 307 308 309 310 312 312 313 312 313 315 317 319 322 323 323 323 323 323 323 323 323 323 323 324 323 323 323 323 323 323 322 322 321 321 321 320 318 316 315 314 313 314 314 313 313 311 309 308 306 303 301 298 298 297 297 297
317 318 319 322 322 321 319 318 320 318 317 321 321 318 319 318 318 316 315 315 315 315 315 314 313 311 311 310 308 307 306 305 304 303 303 303 303 303 304 304 304 305 306 307 308 308 309 310 311 311 313 315 317 319 321 321 321 321 321 321 321 321 321 322 322 322 322 322 321 321 321 321 320 320 319 319 319 318 317 315 314 313 312 312 312 311 310 309 307 305 302 300 298 298 297 297 297
316 318 321 324 324 321 318 318 318 316 317 322 322 318 319 318 316 316 315 315 315 315 315 314 312 311 309 308 307 306 305 304 303 302 302 302 302 302 302 302 303 303 304 305 305 306 307 308 308 309 309 311 313 315 318 318 318 318 318 318 319 319 319 319 320 320 320 320 319 319 319 318 318 318 317 317 317 317 316 314 313 312 311 311 311 310 309 308 305 304 301 299 298 297 297 297 296
320 321 321 323 323 321 323 322 319 316 317 323 324 318 318 318 316 316 315 314 313 313 314 312 310 310 308 307 306 305 304 304 303 302 301 301 301 301 301 301 301 301 302 303 304 304 305 306 306 307 307 307 308 310 312 313 314 315 315 315 316 317 317 317 317 317 317 317 317 317 317 316 316 315 315 315 315 315 315 313 312 311 310 309 309 308 308 306 305 303 301 299 298 297 296 296 296
323 323 321 324 322 320 325 325 320 317 317 320 320 318 319 318 317 317 314 312 312 311 311 310 309 308 307 306 305 304 304 303 302 302 301 300 301 301 301 301 301 301 301 301 302 302 303 304 305 305 306 306 306 308 309 309 310 310 310 311 312 312 312 313 314 314 314 314 315 315 315 315 315 314 314 313 313 313 313 313 311 310 309 308 307 307 306 305 304 303 301 299 298 296 296 296 296
328 326 323 323 322 321 323 323 321 320 323 323 319 321 327 322 317 318 314 311 311 310 309 309 308 307 306 305 305 304 303 303 302 301 301 300 300 300 300 300 300 300 300 300 300 300 301 302 303 304 304 305 305 306 306 307 307 307 307 307 307 308 308 308 308 308 309 310 310 311 311 312 312 312 312 312 311 311 311 311 311 310 308 307 306 305 305 305 304 303 301 300 297 296 296 296 297
328 329 325 323 323 323 323 324 324 323 326 326 318 324 333 327 320 321 315 311 311 310 309 308 307 307 306 305 304 303 303 302 301 301 300 299 299 299 299 299 299 299 299 300 299 299 300 300 301 302 303 304 304 304 305 305 305 305 305 305 305 305 305 305 305 305 305 307 307 308 308 308 308 309 309 309 310 309 310 310 309 309 308 306 305 304 304 303 303 302 301 300 298 297 296 296 296
325 328 327 325 323 322 323 323 323 325 327 322 316 323 328 324 322 323 317 312 311 310 309 308 307 306 305 304 304 303 302 301 301 300 299 298 298 297 298 298 298 298 299 299 299 299 299 299 300 300 301 302 303 303 304 304 304 304 304 304 304 304 304 304 304 304 304 305 306 306 306 305 305 305 305 306 306 307 307 308 308 308 307 306 305 303 302 302 302 302 301 299 298 297 296 295 296
328 327 323 323 321 320 322 319 319 325 324 320 318 318 321 322 322 320 316 314 311 309 308 307 306 305 304 303 303 302 301 301 300 299 298 297 296 296 296 297 297 297 297 297 298 298 298 299 299 299 299 300 300 301 302 302 302 302 302 303 302 302 302 303 303 304 304 304 304 304 305 304 304 303 303 303 303 304 305 305 306 306 306 306 305 303 302 301 301 301 300 299 298 297 297 296 296
329 324 318 320 318 318 320 317 320 323 320 321 322 317 319 326 328 319 315 315 312 310 309 306 305 304 303 303 302 301 300 300 300 299 297 296 296 295 295 295 296 296 296 296 296 297 297 298 298 299 298 298 299 299 299 300 300 300 300 301 301 301 301 302 302 302 302 303 303 303 303 303 303 303 303 302 302 302 302 302 303 303 304 304 304 303 302 301 300 300 299 299 298 297 297 296 295
324 320 319 323 320 319 318 316 319 319 319 323 324 319 320 327 334 324 315 316 314 310 308 305 305 304 303 303 302 301 300 299 299 297 296 295 295 294 294 294 294 294 295 295 295 296 296 297 297 298 297 297 298 298 298 298 299 299 299 299 299 299 300 300 300 300 301 301 301 301 301 302 302 302 302 302 301 301 301 301 301 301 301 302 302 303 302 302 301 300 299 298 298 297 297 296 296
319 320 323 326 324 322 320 320 321 319 322 326 324 322 319 324 336 327 316 316 313 309 307 305 304 303 302 302 300 300 299 298 298 296 295 294 294 293 293 293 293 293 294 294 294 294 295 295 296 296 296 296 297 297 298 298 298 298 298 298 298 298 298 298 298 298 298 299 299 299 300 300 300 300 301 301 301 301 300 300 300 300 300 300 300 301 301 301 301 300 299 298 297 297 297 297 296
319 324 323 322 326 327 322 322 324 321 326 332 326 322 318 322 330 320 312 314 311 309 307 304 303 302 301 301 299 299 298 297 297 296 295 293 293 293 292 292 292 292 293 293 293 293 293 294 294 294 294 294 295 295 296 296 297 297 297 297 297 297 297 296 297 297 297 297 297 298 298 299 299 299 299 299 299 299 299 299 300 299 299 299 299 299 299 299 300 300 300 299 298 297 296 297 296
319 323 320 319 325 327 325 325 324 323 328 330 325 321 320 323 323 314 309 310 309 308 305 303 302 301 300 300 299 298 297 297 296 295 295 293 292 292 292 292 291 291 292 292 292 291 291 292 292 293 293 292 292 293 293 294 294 295 295 296 296 296 296 296 295 295 295 296 296 296 296 296 297 297 298 298 298 298 298 298 299 299 299 299 298 298 298 298 298 298 299 299 298 298 297 296 296
316 319 321 322 325 325 326 326 321 321 326 324 319 317 322 326 318 309 306 304 304 304 303 302 301 300 299 299 298 298 297 297 296 295 295 293 292 292 292 292 291 291 291 291 291 290 290 291 291 291 292 291 291 290 290 291 291 291 292 293 293 293 293 294 294 294 294 294 295 295 295 295 295 295 295 296 296 297 297 297 298 298 298 298 298 298 297 297 297 297 298 298 298 298 297 297 296
316 320 323 324 327 324 321 321 319 322 327 325 319 318 325 327 314 305 304 302 301 301 301 301 300 299 299 298 298 298 297 297 296 295 295 292 291 292 292 292 292 291 291 290 290 290 289 289 289 289 290 290 290 289 289 289 288 288 288 289 289 289 289 290 290 291 291 291 291 292 293 293 294 294 295 295 295 296 296 296 297 297 298 298 298 298 297 297 297 297 297 297 297 297 297 297 297
318 319 320 322 327 324 320 321 321 322 325 323 321 323 322 317 308 304 303 302 301 301 300 300 300 299 299 299 298 298 297 296 296 296 295 292 291 292 292 292 292 292 291 290 289 289 288 288 288 288 288 288 288 288 288 288 287 287 287 287 287 287 287 287 287 287 287 287 287 288 289 289 290 291 293 294 294 295 295 295 296 296 296 297 297 297 296 296 296 296 296 296 296 296 296 296 296
321 317 322 327 325 321 320 324 322 318 320 320 319 321 316 310 308 305 303 303 302 302 301 300 301 300 300 299 299 298 297 296 296 296 294 292 291 291 291 291 292 292 292 291 290 289 288 288 288 288 288 288 288 287 287 287 287 286 286 286 286 286 286 286 286 286 286 286 286 286 286 286 287 288 288 289 290 292 293 294 295 295 295 295 295 295 295 295 295 295 295 296 296 296 296 296 296
321 319 324 324 320 318 320 323 323 320 320 320 317 319 316 314 314 307 303 305 303 301 301 301 300 301 300 300 299 298 298 297 296 295 293 292 291 291 291 291 291 292 292 292 291 289 288 288 287 287 287 287 287 287 287 287 287 287 286 286 286 286 286 286 286 286 286 286 286 286 286 285 286 286 286 286 287 288 289 290 291 292 293 294 294 294 294 294 294 294 295 295 295 295 295 295 295
318 321 321 318 319 322 322 321 322 321 319 320 320 319 318 317 316 310 305 306 304 302 302 302 301 301 300 300 299 298 298 297 297 297 294 292 291 291 290 290 291 292 292 292 290 289 288 288 288 287 287 287 287 287 287 287 287 287 287 287 287 287 287 286 286 286 286 286 286 286 286 286 286 286 286 286 286 286 286 286 287 288 289 291 292 293 293 293 293 293 293 294 294 294 294 294 294
316 319 318 318 319 321 321 319 321 322 319 319 319 319 322 323 319 312 307 305 304 303 303 303 303 302 301 300 299 299 299 298 297 297 295 293 291 291 291 290 291 291 291 291 290 290 289 288 288 288 288 288 288 288 288 288 288 288 288 288 287 287 287 287 287 287 287 287 287 287 287 287 287 287 286 286 286 286 285 285 286 286 286 287 288 290 291 292 293 293 292 293 293 293 294 294 294
317 319 318 318 317 318 319 317 317 320 320 319 318 318 324 324 315 310 307 304 303 304 304 305 304 303 302 301 300 300 299 299 297 297 295 292 292 292 291 291 291 290 290 291 290 290 290 289 289 289 289 288 288 288 288 288 288 288 288 288 288 288 287 287 287 287 287 287 287 287 287 287 287 287 287 287 287 287 286 286 286 286 286 286 286 286 288 289 291 292 292 292 292 292 292 293 293
317 321 321 321 319 318 318 317 316 318 317 318 317 317 321 318 311 307 306 304 305 305 306 307 305 302 302 302 301 301 300 299 298 296 294 292 292 292 291 291 291 291 290 290 290 290 290 290 290 290 289 289 289 288 288 288 288 288 288 288 288 288 287 287 287 287 287 287 287 287 287 287 287 287 287 287 287 287 287 287 286 286 286 286 286 285 286 286 287 289 290 291 291 291 291 292 292
Wind_Speed
8 8 6 7 9 11 9 2 3 3 3 1 4 1 3 1 2 3 3 2 2 1 2 2 1 0 1 2 5 5 5 6 4 3 3 5 6 11 18 16 15 19 20 21 23 27 28 26 25 24 24 23 23 21 21 20 19 18 16 16 16 16 16 14 13 12 11 10 9 9 8 8 7 8 8 8 8 8 8 8 7 7 7 8 9 9 9 8 7 7 7 7 6 5 4 5 7
8 7 6 7 7 5 3 2 4 3 4 2 4 1 2 3 4 3 3 3 2 4 3 3 2 1 2 1 3 1 3 6 4 3 2 4 8 14 18 14 16 19 20 21 23 28 29 27 26 25 25 24 23 22 21 20 19 18 17 17 17 17 16 15 14 13 12 11 10 10 9 8 8 7 8 9 9 9 8 8 8 8 8 9 10 10 8 6 5 5 5 5 5 3 2 1 2
7 7 8 8 4 1 1 3 3 1 4 1 4 3 1 4 3 4 5 5 6 5 2 1 1 1 2 3 1 3 3 3 3 2 1 6 7 12 18 15 16 18 19 21 22 28 30 29 27 26 25 25 24 22 22 21 19 18 17 18 18 18 16 15 15 14 13 12 11 10 9 9 9 8 9 9 10 10 9 9 9 9 9 9 10 9 7 4 4 4 3 3 3 1 1 2 3
7 6 8 7 4 3 3 3 2 3 1 2 1 4 2 4 2 3 5 6 7 4 2 1 1 1 2 0 2 2 3 2 2 4 3 8 7 9 18 17 17 17 17 19 22 28 30 29 28 27 26 26 25 23 23 21 20 18 18 18 18 18 17 16 15 15 14 13 12 11 10 10 10 10 10 10 10 11 11 10 9 9 9 9 8 7 5 4 3 2 1 3 4 3 3 4 4
7 6 6 3 3 1 2 2 0 3 2 3 3 4 1 3 2 1 2 3 5 5 4 2 0 3 0 3 2 1 3 1 1 6 7 10 7 9 17 19 19 18 17 17 20 27 29 29 28 27 26 26 25 24 24 22 21 19 18 18 18 18 17 16 15 15 14 13 12 11 11 11 11 11 11 12 11 12 12 12 10 10 9 8 7 6 5 3 2 1 0 2 5 5 5 5 5
8 8 3 0 1 1 2 1 1 1 5 4 4 4 2 3 3 1 5 1 2 2 4 2 0 1 1 3 2 3 3 2 2 6 8 10 8 10 16 20 21 18 17 16 18 25 29 29 28 27 26 26 26 25 25 24 22 20 19 18 18 18 17 16 15 14 14 13 13 12 12 12 12 12 13 13 13 12 11 12 12 11 10 9 6 4 3 2 1 1 0 1 3 6 6 6 6
8 7 2 2 2 1 3 1 3 3 5 4 6 3 2 2 4 4 6 2 1 2 2 1 1 3 2 3 1 2 1 3 4 6 7 9 8 10 16 20 21 19 17 15 17 22 27 28 28 27 26 26 26 26 26 25 24 22 20 19 18 17 17 17 15 14 14 13 13 13 13 13 14 14 14 14 13 11 10 10 12 11 11 10 8 5 3 2 1 1 2 2 3 5 5 5 5
5 2 1 4 2 2 2 2 4 3 4 3 5 3 4 3 4 4 3 1 1 1 1 1 4 3 4 3 1 4 3 4 4 8 8 8 8 10 16 20 21 21 17 15 15 18 24 28 28 27 26 25 26 26 26 25 24 23 22 20 19 17 17 16 16 15 14 14 14 13 13 14 15 15 15 14 12 10 9 9 10 10 9 8 6 6 5 3 3 3 3 3 5 7 5 5 4
2 1 2 3 2 2 2 3 4 3 4 3 1 3 5 4 4 3 1 3 2 1 2 4 5 3 4 5 3 5 3 5 7 9 9 8 9 10 15 20 21 22 19 15 15 17 20 25 28 28 27 25 26 26 25 24 23 23 23 21 20 19 17 17 16 16 15 14 14 14 14 15 16 16 16 14 12 11 10 8 8 9 9 8 7 7 7 5 4 4 3 4 6 8 6 4 4
3 1 2 2 2 3 4 3 3 3 5 3 1 2 5 4 3 3 0 4 3 1 2 4 4 1 3 4 4 4 1 6 8 10 10 9 9 10 14 19 20 19 20 18 16 17 18 21 26 28 27 26 25 26 25 24 24 23 22 22 20 20 19 18 17 17 16 16 15 16 16 16 16 17 16 14 13 13 11 9 8 8 8 8 6 5 6 5 4 4 4 5 8 7 4 3 1
3 2 2 3 3 1 3 4 4 5 6 3 3 1 3 5 3 2 2 3 3 1 2 1 2 3 1 3 4 2 3 8 8 9 10 10 9 10 13 17 19 17 18 21 19 18 18 18 22 26 27 26 26 26 25 24 24 24 22 21 20 20 20 19 19 18 18 18 17 17 17 17 17 16 16 16 15 13 12 10 8 8 8 8 9 9 7 5 5 5 6 6 6 4 1 0 1
2 4 3 3 0 2 3 4 6 6 7 4 2 4 1 5 4 1 3 3 4 4 2 1 0 2 1 3 4 2 6 8 9 9 10 11 9 11 13 15 19 18 17 20 21 19 19 19 21 23 25 26 27 26 26 25 24 24 23 22 21 20 20 19 20 20 20 19 19 18 18 18 17 16 16 16 14 13 12 10 9 9 9 10 11 11 8 7 6 6 6 6 4 1 1 2 3
2 1 4 1 3 2 3 3 5 4 6 2 1 4 1 5 2 2 1 3 5 6 2 5 1 2 1 4 3 2 5 8 9 9 11 11 10 11 14 15 18 19 17 20 21 20 20 20 22 23 24 26 27 27 27 26 25 25 24 23 22 21 21 20 20 21 21 20 20 19 18 18 17 17 17 16 14 13 12 11 11 10 11 11 10 10 8 8 7 7 6 5 2 1 3 4 4
1 0 4 0 2 2 3 2 4 2 3 4 2 3 1 1 3 4 2 4 6 1 3 6 3 2 3 3 3 4 6 10 11 10 10 10 11 12 13 16 18 19 19 21 21 21 21 21 23 23 24 26 27 27 27 27 26 26 26 24 23 22 22 21 21 21 21 21 20 19 19 18 18 17 17 16 15 14 13 12 12 10 10 11 10 10 9 8 7 7 7 4 2 3 4 5 5
1 0 4 1 3 4 2 3 3 2 3 5 2 2 1 1 3 4 3 3 6 5 1 3 2 2 4 2 4 6 9 15 14 11 11 11 12 13 12 14 18 19 21 22 21 21 22 22 24 24 25 26 27 28 28 28 27 27 26 25 24 23 23 22 22 21 21 21 20 20 20 19 18 18 17 16 16 14 13 13 12 10 10 11 11 10 9 9 8 7 7 4 3 4 5 6 6
3 3 4 2 2 2 2 2 0 2 3 5 2 1 3 5 0 2 4 3 4 4 1 3 1 3 5 4 10 11 9 15 16 13 13 12 12 15 13 13 17 19 21 23 22 22 22 23 24 25 27 27 28 29 29 29 28 27 26 26 25 24 24 23 23 22 22 21 21 22 21 20 19 18 17 16 16 15 14 13 12 11 11 12 12 11 11 10 9 8 7 5 5 5 5 6 6
4 4 4 1 2 1 3 1 3 1 4 5 4 1 3 5 4 0 3 2 3 6 4 5 4 4 6 10 17 13 10 16 17 15 14 13 13 15 15 13 16 20 21 24 25 24 23 24 24 25 27 28 29 29 30 31 29 28 26 26 25 25 24 24 24 23 23 22 22 22 22 21 20 19 18 17 16 15 15 14 13 12 12 14 13 12 12 11 10 8 7 6 6 5 6 6 6
4 3 3 1 3 3 4 2 3 1 3 6 5 3 5 3 5 3 3 3 3 7 7 5 6 7 12 19 17 9 12 16 17 17 15 14 13 14 16 17 18 21 22 24 27 27 25 26 26 26 28 28 29 30 32 32 31 29 28 26 26 26 25 25 25 24 24 23 23 23 22 22 21 20 19 18 18 17 16 15 14 12 13 14 13 13 13 12 11 9 8 7 6 7 7 7 7
3 3 2 3 5 5 4 4 5 3 4 6 5 4 5 2 4 2 2 6 5 6 9 6 8 9 12 17 10 7 14 17 17 17 16 16 16 17 17 19 20 21 23 25 27 29 29 28 28 28 28 28 29 30 32 33 33 31 29 28 27 27 26 26 26 25 25 25 24 24 23 22 21 21 20 20 19 18 17 16 15 13 13 14 15 15 15 14 13 11 10 8 8 8 8 8 8
2 3 2 6 6 5 6 6 7 6 5 5 5 3 4 5 3 2 4 8 6 6 9 7 11 12 9 9 4 11 15 15 18 17 17 18 20 20 19 20 22 24 25 25 26 29 31 31 30 29 29 28 28 30 32 33 33 32 31 30 29 28 28 27 27 27 26 26 25 25 24 23 22 21 20 20 19 18 18 17 16 15 14 15 16 16 16 16 14 12 12 10 9 10 9 10 10
1 4 5 7 4 4 7 7 8 8 5 5 5 5 6 6 2 2 4 7 7 7 9 9 13 15 10 8 5 10 13 14 17 17 18 19 20 21 22 22 23 23 23 23 26 28 30 32 32 31 29 28 28 29 32 34 34 33 32 31 31 30 29 29 28 28 28 27 27 26 25 23 23 22 21 21 20 20 19 18 18 17 16 17 18 18 18 17 15 14 13 11 10 10 10 11 11
2 4 7 7 4 4 7 6 7 6 5 6 6 7 5 4 3 3 3 6 9 8 9 10 13 14 12 10 7 7 10 11 14 16 18 20 21 22 23 24 23 22 22 24 26 26 28 31 32 32 31 30 29 30 31 33 34 34 34 33 33 32 32 31 31 31 30 29 29 28 26 25 24 23 22 22 22 21 20 20 20 19 18 19 20 20 20 19 17 16 13 11 11 11 10 11 12
3 5 5 7 7 6 5 5 6 6 6 6 4 5 2 4 8 4 5 10 13 11 10 10 12 14 15 11 7 6 7 9 11 16 21 23 23 24 25 25 24 23 23 25 26 25 26 28 31 33 34 33 31 31 32 33 35 35 35 34 34 34 34 33 34 34 33 32 31 30 28 27 26 25 24 24 23 23 22 21 20 20 20 21 22 21 22 21 19 17 13 11 12 12 12 12 12
5 5 5 7 7 6 5 5 6 6 6 7 4 6 4 4 8 2 5 12 15 15 12 11 14 15 15 11 8 9 10 11 12 18 23 26 27 28 27 26 25 24 24 25 25 26 27 27 28 32 34 35 34 32 33 34 35 35 35 35 35 35 34 34 34 34 34 34 33 31 30 29 28 27 27 26 25 24 24 23 21 21 21 23 23 22 23 22 20 18 15 13 13 13 13 13 12
5 5 4 4 4 5 6 6 7 8 8 7 5 9 9 8 7 6 10 15 16 16 12 11 13 12 11 10 11 11 10 11 13 17 20 24 28 27 26 25 24 23 24 25 25 27 28 27 27 30 33 35 35 34 34 35 35 35 35 35 35 35 35 34 33 33 33 34 33 32 31 30 30 29 29 28 27 26 25 24 23 23 23 24 24 24 24 23 22 19 17 15 15 15 15 14 12
3 2 3 4 5 6 6 6 9 10 8 6 6 11 11 6 5 8 11 14 15 12 10 10 9 9 10 10 11 10 10 10 11 15 18 20 22 22 25 25 22 23 25 25 25 27 28 28 28 29 30 32 35 35 35 35 35 36 36 36 35 34 35 34 33 33 33 33 33 33 32 32 31 30 30 29 29 28 27 25 25 24 24 25 26 26 25 24 22 20 18 17 17 17 16 15 13
2 3 5 6 6 7 5 7 13 12 8 8 7 11 13 5 3 6 9 12 12 9 10 11 8 9 9 9 9 8 7 9 12 13 14 15 14 18 23 23 22 22 24 25 26 27 28 28 29 28 29 30 33 36 37 36 35 36 36 36 35 34 34 33 32 32 32 32 32 33 33 32 31 30 30 30 30 29 28 27 26 25 25 26 27 27 26 25 23 21 19 18 18 19 17 15 14
3 4 6 9 8 9 9 10 14 9 5 8 8 8 11 2 4 9 13 12 9 8 12 13 10 10 9 7 8 6 6 11 17 14 11 13 13 17 22 22 23 23 23 25 25 26 27 27 28 28 28 29 32 35 36 37 36 36 35 34 34 33 32 31 31 32 32 31 31 31 32 32 31 30 30 30 30 29 29 28 27 26 26 26 27 27 26 25 23 21 19 18 18 19 18 16 15
5 4 4 9 7 8 13 11 11 7 4 5 7 1 7 3 7 13 14 11 8 8 12 13 11 9 7 5 5 5 8 12 14 13 12 14 14 9 9 11 16 20 20 21 22 23 24 25 26 26 27 28 31 32 34 36 35 34 33 33 32 31 30 29 30 31 31 30 30 29 30 31 31 31 31 31 31 30 29 28 27 27 26 26 26 26 25 24 23 22 20 18 19 19 19 18 17
6 4 0 6 6 7 12 8 7 6 3 6 9 1 6 8 12 13 11 8 7 8 10 10 10 8 5 5 6 6 7 10 14 19 23 25 26 24 23 19 11 7 9 10 12 15 18 21 23 24 25 27 28 30 32 32 32 32 31 31 31 31 29 29 29 29 29 29 29 28 28 30 31 31 31 31 31 30 29 28 28 28 26 25 25 26 25 25 25 24 23 21 20 21 20 20 19
4 4 0 2 2 6 11 6 3 2 2 4 8 3 6 8 11 11 11 8 7 10 10 11 10 8 6 6 6 6 9 14 18 23 27 28 29 30 31 29 25 19 13 7 6 7 12 15 18 21 23 24 26 27 29 29 29 29 28 28 28 29 29 28 28 28 28 27 28 27 27 29 30 31 31 31 30 30 29 29 29 28 27 26 26 26 26 26 26 26 25 24 22 21 21 21 21
2 2 3 2 3 5 10 8 4 3 2 2 4 3 5 7 10 11 11 9 7 9 12 12 9 8 8 6 7 8 9 14 22 26 27 29 30 32 32 31 30 28 23 15 8 4 5 8 11 15 18 21 22 23 25 25 25 26 25 24 23 25 26 27 26 26 26 26 26 27 27 28 29 30 30 30 30 30 29 29 29 29 29 28 28 28 27 27 27 27 26 26 25 24 23 22 22
2 2 4 4 3 3 6 7 4 3 2 2 1 3 4 5 8 10 10 10 9 9 12 12 10 10 7 7 9 9 8 12 18 23 26 27 29 31 32 32 31 30 28 23 16 11 6 2 2 5 9 13 16 18 20 19 19 20 21 20 19 20 22 23 23 24 24 24 25 26 26 27 28 29 29 30 30 29 29 29 29 30 30 30 29 29 29 29 29 28 27 27 27 26 25 25 24
3 2 4 4 5 3 3 6 6 3 3 2 3 4 6 7 8 10 11 12 11 10 9 9 9 7 6 9 9 9 10 11 12 17 23 25 28 30 32 32 32 31 31 28 23 19 16 11 8 7 4 2 5 9 12 12 12 14 15 15 14 15 17 19 20 21 22 23 23 24 25 25 26 27 28 29 29 28 29 29 29 30 31 31 31 31 30 30 29 28 28 28 28 28 28 28 27
4 4 4 4 4 4 5 6 5 4 4 5 6 6 8 9 9 10 12 11 9 8 6 8 7 4 8 9 9 9 11 11 11 16 22 25 28 30 31 32 32 32 32 32 29 24 21 19 16 15 12 8 5 0 5 5 5 7 8 9 9 10 11 14 15 17 19 20 21 21 23 24 25 26 27 28 29 28 28 29 29 30 31 32 32 32 31 31 30 30 30 30 30 30 29 29 28
7 6 4 5 5 5 6 6 5 4 5 7 7 7 6 8 9 11 14 9 6 8 7 5 4 8 9 9 9 9 11 10 12 19 24 27 29 30 31 31 32 33 33 34 33 30 26 23 21 20 17 13 11 6 3 2 3 3 3 4 4 5 6 8 10 12 14 16 18 19 20 21 23 24 26 27 29 29 29 29 30 30 32 33 33 33 33 33 33 33 33 32 32 31 29 28 27
6 5 4 5 5 6 5 6 6 3 2 6 5 4 6 8 10 14 15 9 7 8 4 5 7 9 8 9 9 9 10 8 12 21 26 28 30 31 31 31 32 33 34 34 35 33 29 26 24 23 20 16 15 12 8 6 6 5 4 2 1 1 2 4 6 7 9 11 13 15 18 19 20 22 24 26 28 29 30 30 31 31 32 33 34 34 34 34 33 34 33 32 32 31 29 27 27
5 5 4 5 5 6 5 6 7 3 2 5 4 5 7 9 11 16 15 9 8 5 4 8 9 10 8 9 10 9 8 7 12 19 24 29 30 30 30 31 32 32 32 33 33 32 30 28 26 25 22 21 20 16 12 10 9 8 6 5 4 3 3 4 5 6 7 8 9 11 13 15 17 19 21 23 26 29 30 31 31 32 32 32 33 33 33 33 33 33 32 31 31 31 31 29 30
5 4 2 4 4 3 6 6 4 3 1 5 6 6 8 9 12 17 12 5 5 5 8 8 9 11 8 9 8 8 9 9 11 14 19 26 27 28 29 29 31 31 31 32 32 31 30 28 27 25 23 22 22 19 16 14 12 10 9 8 5 3 2 2 3 5 7 9 10 11 11 12 14 15 18 21 24 27 29 30 31 31 31 31 32 33 33 33 33 34 33 32 30 30 29 29 33
5 4 2 5 4 1 4 5 4 4 2 3 4 6 5 7 12 11 6 6 7 9 12 11 10 11 10 9 8 8 10 10 11 12 15 20 24 26 26 27 29 31 32 32 31 30 29 28 27 26 24 23 21 20 17 15 13 12 12 10 8 7 6 4 3 4 6 8 9 11 12 13 13 14 15 17 21 24 27 29 30 30 31 31 32 32 34 34 34 35 35 35 32 29 27 28 34
4 4 5 5 4 4 6 4 4 5 5 2 3 5 4 5 11 7 4 7 7 8 11 11 9 9 10 10 10 10 10 9 10 11 11 15 19 22 24 25 27 30 31 31 30 29 29 28 27 26 25 24 22 20 17 15 15 14 13 12 12 11 10 10 9 9 7 7 7 8 10 11 13 14 15 15 17 20 23 26 28 29 30 30 31 32 33 34 35 36 36 37 35 32 30 29 32
4 4 8 8 7 7 5 3 4 4 5 4 4 4 6 5 7 7 2 6 7 6 8 10 8 8 9 10 9 9 9 9 9 10 10 13 17 20 23 25 27 29 28 28 29 30 29 29 28 28 27 25 23 20 18 16 17 17 17 17 17 16 15 15 14 14 12 7 6 5 6 8 10 12 13 15 16 17 20 22 25 27 28 29 29 30 32 33 34 35 36 37 37 37 33 28 28
3 5 6 6 6 4 2 2 3 1 2 4 2 1 6 4 5 8 3 8 6 5 8 9 7 7 8 8 7 7 8 8 8 10 10 12 16 18 22 24 26 26 26 27 29 31 31 31 31 30 29 27 24 22 19 18 19 19 18 19 19 19 18 17 15 15 14 10 6 4 4 5 7 8 10 12 14 15 17 19 21 24 26 27 27 28 30 32 33 34 34 36 37 37 35 29 29
4 5 3 5 3 2 2 2 1 3 2 5 2 4 5 4 6 7 5 10 6 6 7 7 7 8 8 8 7 7 7 7 8 8 9 12 15 18 20 22 23 24 25 28 29 30 31 32 33 33 32 30 27 25 23 22 22 21 20 19 19 18 18 17 15 14 14 13 10 7 6 6 7 7 8 8 10 12 14 16 18 20 23 25 26 26 27 29 31 32 33 34 36 37 36 33 31
6 5 4 5 4 4 3 2 2 2 2 5 5 5 3 5 6 3 7 9 5 6 6 6 7 7 8 8 7 7 6 7 8 8 8 11 14 17 19 20 23 24 26 28 28 29 31 32 34 34 34 33 30 28 27 26 25 23 22 21 20 19 18 16 15 14 14 13 13 12 9 8 8 9 8 8 8 9 10 12 15 17 20 22 24 26 26 26 28 31 32 33 34 36 37 36 33
4 2 4 4 2 2 1 1 1 2 2 4 6 5 3 5 6 1 5 5 5 6 5 5 6 6 7 7 6 5 5 6 7 8 9 12 14 16 18 22 24 25 26 27 29 30 31 32 33 34 33 32 32 31 30 29 27 26 26 24 23 22 20 18 17 17 17 15 15 15 14 12 10 10 10 10 10 9 10 10 11 13 16 18 21 24 25 26 26 28 30 32 33 34 36 37 36
2 5 5 6 5 3 3 1 3 3 2 6 8 8 6 3 5 2 2 4 9 9 6 6 6 6 6 5 5 5 5 5 6 6 9 12 14 16 19 23 24 25 26 28 29 29 30 31 31 32 31 30 30 31 31 30 29 29 28 26 25 24 22 22 21 22 21 19 18 18 16 15 14 13 11 11 11 12 12 12 12 12 13 15 18 20 23 25 26 27 28 30 31 32 33 35 37
5 5 4 4 5 4 4 4 3 1 5 7 7 7 7 5 4 2 3 1 8 10 9 10 8 7 5 5 4 4 4 5 5 5 7 10 13 16 21 23 23 24 26 26 27 28 29 29 29 31 30 28 28 28 29 30 29 29 28 27 26 25 24 24 24 24 23 22 21 19 18 16 15 15 15 14 13 13 13 13 13 13 13 14 15 17 19 21 23 25 26 27 29 30 31 32 35
5 4 4 2 4 3 2 2 0 2 6 6 3 2 4 6 3 3 6 6 6 6 8 10 10 8 6 5 4 3 4 4 5 5 5 7 10 14 18 20 21 23 23 24 26 27 27 27 28 28 27 26 27 27 28 28 28 28 27 27 26 25 25 25 25 24 23 22 22 20 20 20 18 18 17 16 16 15 13 12 13 14 14 14 14 16 18 19 21 23 25 26 28 29 29 30 32
5 4 4 3 1 0 3 3 2 3 5 4 2 1 1 5 2 4 5 5 6 9 9 8 8 8 6 5 4 3 4 4 5 5 5 6 9 12 15 17 19 20 22 24 25 25 26 26 26 26 25 25 26 27 27 28 28 27 26 26 26 26 26 26 25 25 24 24 23 22 22 21 20 20 19 18 16 15 14 13 12 13 14 14 14 15 17 19 20 22 23 25 26 28 29 30 31
5 5 5 5 4 3 4 3 3 4 4 4 3 1 2 3 0 3 4 5 7 9 8 7 7 6 5 5 4 4 4 4 4 4 5 7 10 12 13 15 17 19 22 24 24 24 24 24 24 25 24 24 25 25 26 26 26 26 26 26 26 26 25 25 25 24 24 24 24 24 24 23 23 22 20 19 17 16 15 14 12 12 13 14 15 16 18 19 20 21 23 24 25 26 27 29 30
2 4 4 2 4 4 2 3 4 3 3 4 2 2 2 2 2 3 4 5 7 7 6 7 6 5 4 4 4 3 4 3 4 4 5 7 10 11 12 14 16 17 20 21 22 22 22 23 23 23 23 23 24 24 25 25 25 26 26 26 26 25 25 25 25 24 24 24 24 24 24 24 24 23 23 22 21 19 17 15 13 12 12 13 14 16 18 19 20 21 22 24 25 25 26 28 29
0 3 3 4 4 5 1 4 2 1 3 4 3 2 1 2 1 2 4 5 6 5 5 6 5 5 5 4 4 3 3 3 4 4 4 6 8 10 11 13 13 14 15 17 17 18 19 21 21 22 22 22 23 23 23 24 25 25 26 26 25 25 25 25 24 24 23 23 23 23 23 23 23 23 23 23 23 22 20 18 16 14 13 14 15 16 17 18 19 20 22 23 25 25 26 27 28
4 2 4 3 1 3 2 1 2 1 4 4 3 5 4 2 2 1 3 4 5 4 4 5 4 4 4 4 3 3 3 4 4 4 4 6 8 10 11 11 11 11 11 12 13 13 15 17 18 19 19 19 20 20 21 22 22 24 24 24 24 24 24 23 23 23 23 23 24 24 24 25 24 24 24 23 23 22 21 21 20 18 17 15 15 16 17 17 18 20 21 23 24 24 26 27 27
4 4 3 1 1 2 0 2 2 3 4 4 5 7 5 4 4 5 6 7 7 6 5 5 4 4 4 4 4 4 3 3 3 4 4 5 8 9 10 10 10 9 9 10 10 10 12 13 14 15 15 16 17 17 18 18 19 20 20 20 21 21 22 22 22 22 22 23 24 24 25 26 26 26 26 25 24 24 23 22 21 21 20 19 17 16 16 17 18 19 21 22 23 24 26 28 27
3 1 2 1 3 3 2 2 3 3 4 4 5 5 4 4 5 8 10 10 10 9 7 6 6 6 5 5 5 4 4 4 3 3 3 5 7 7 7 8 8 8 7 7 7 7 8 9 9 10 11 12 13 14 14 14 14 14 15 16 17 19 20 20 21 21 22 22 23 24 25 26 27 27 27 27 27 26 25 24 23 22 22 21 20 19 18 17 17 18 20 22 22 23 26 28 28
2 2 1 2 1 1 2 2 2 3 3 3 4 5 4 4 2 7 11 10 10 9 8 6 7 7 6 5 5 5 4 4 3 3 3 4 4 3 3 3 4 5 5 5 5 4 4 5 6 7 7 9 10 10 10 9 9 9 8 10 11 14 16 17 18 19 20 21 23 24 26 26 27 27 28 28 28 28 28 27 26 25 24 23 22 22 21 19 18 19 19 20 22 23 25 27 27
4 2 3 3 2 1 2 4 2 3 3 3 4 5 5 4 1 4 9 9 8 8 8 7 8 7 7 5 5 5 5 4 4 3 3 4 4 2 2 2 2 2 3 3 3 3 3 3 4 4 6 7 8 9 10 9 9 9 8 8 8 9 11 13 15 15 17 19 21 23 25 26 27 28 28 28 28 29 29 29 28 28 26 25 24 23 22 22 21 21 20 20 21 22 24 26 27
Wind_Direction
339 333 352 9 349 337 330 51 67 321 79 334 283 159 275 273 113 65 50 35 43 281 212 229 270 149 194 191 191 197 196 188 186 151 205 227 152 164 172 173 189 190 185 183 184 184 184 184 183 178 175 175 174 173 174 175 177 180 178 170 167 167 165 166 165 162 163 160 159 156 155 153 151 153 150 150 151 151 152 149 145 146 143 141 141 135 128 126 134 126 102 88 78 69 79 86 86
348 347 6 356 336 346 310 83 79 326 50 354 291 151 261 356 51 98 129 131 177 224 201 220 294 328 289 234 174 142 249 218 174 155 207 164 145 168 171 176 191 191 190 185 185 185 183 185 184 181 178 177 176 175 177 178 180 184 182 174 173 173 170 171 170 169 169 166 167 163 165 164 161 161 157 154 150 150 149 147 148 145 139 137 135 134 133 130 140 132 114 108 97 80 73 90 102
3 4 14 1 340 43 350 42 88 83 57 11 285 277 5 50 65 141 159 162 189 197 169 230 338 307 18 12 118 131 254 257 123 110 82 155 161 179 177 178 189 195 194 188 187 186 185 186 186 184 182 180 177 177 179 180 183 186 184 177 175 176 174 177 175 174 172 169 171 170 173 170 168 168 161 154 150 151 146 147 148 142 136 133 131 133 138 131 128 119 126 145 133 124 253 265 259
18 17 3 9 23 27 45 45 142 122 65 240 270 299 8 102 123 131 175 185 183 148 97 66 19 257 113 12 246 166 244 295 143 145 137 183 190 189 179 174 185 196 195 191 189 188 187 186 187 186 184 183 179 179 180 182 186 187 185 180 178 179 178 181 181 178 174 171 172 175 180 176 174 172 165 155 151 151 149 150 143 139 137 136 136 133 133 127 120 114 149 174 176 199 238 258 265
15 11 341 13 66 25 75 67 106 94 249 209 128 288 267 125 87 38 266 198 176 138 131 125 8 291 90 228 219 162 235 294 155 142 148 186 187 178 177 171 181 195 196 192 192 192 190 188 188 188 186 185 182 180 181 183 188 188 187 184 181 183 181 182 184 180 175 175 175 179 185 182 179 176 166 153 150 152 151 150 143 144 144 139 139 130 128 126 116 106 161 187 199 210 228 250 263
5 2 337 129 120 142 88 51 309 279 242 179 141 260 204 121 113 43 339 28 162 145 134 119 158 332 330 258 201 185 207 141 143 139 152 174 165 164 173 173 178 193 197 192 194 195 193 190 190 189 188 187 184 182 184 186 188 190 191 189 185 185 184 183 184 182 179 179 180 184 189 185 181 177 165 157 160 160 157 156 155 156 152 149 145 139 140 134 113 108 225 229 229 228 230 247 263
352 356 7 56 347 59 89 191 235 245 248 179 157 210 135 108 119 69 349 15 29 2 82 148 124 74 274 271 282 256 115 137 161 146 154 160 153 155 169 174 176 189 197 195 196 198 197 194 192 191 191 189 187 185 186 188 189 191 193 193 189 188 188 186 186 185 184 185 185 190 192 185 182 177 168 168 173 174 175 170 170 169 164 164 159 161 161 168 197 186 223 229 254 262 254 259 270
337 338 62 80 16 16 82 260 246 210 252 225 162 143 116 115 107 79 326 319 309 270 22 266 95 79 277 330 301 281 44 103 134 144 150 151 152 150 168 176 176 186 196 199 198 200 200 198 196 194 194 193 190 190 189 189 190 192 194 195 192 189 192 191 189 190 190 190 190 194 194 186 181 177 174 178 183 187 193 188 189 189 188 194 198 206 203 194 204 214 219 209 253 283 293 292 293
350 161 38 74 50 359 346 300 281 242 268 275 120 103 107 103 93 93 279 312 298 167 207 205 119 119 287 349 279 277 31 123 135 145 152 156 158 152 169 179 180 184 191 198 203 203 202 202 200 197 197 196 194 194 192 191 192 194 195 196 194 190 194 196 193 193 194 194 194 195 194 188 183 180 182 188 195 200 204 205 205 211 220 233 246 247 236 212 198 207 200 202 259 288 304 303 304
10 106 67 75 61 359 327 298 282 289 285 287 20 108 109 96 76 70 115 291 285 127 240 199 118 175 274 324 271 286 257 168 156 156 163 168 165 161 171 179 183 186 188 193 203 206 204 204 203 202 200 199 198 196 195 196 196 198 199 200 198 194 195 198 196 194 195 196 198 198 195 190 186 185 190 197 203 206 213 219 219 233 242 236 236 238 229 204 195 200 191 219 268 294 310 312 323
22 346 85 75 36 347 287 287 288 290 292 317 11 3 106 106 81 25 9 314 304 60 262 101 88 233 241 282 269 297 186 180 188 178 171 173 171 168 171 177 183 188 190 192 199 206 206 205 203 205 205 202 201 198 198 199 200 201 202 203 203 201 200 200 198 196 198 198 199 200 197 191 190 191 196 203 208 213 223 230 230 243 247 235 220 210 203 185 192 194 199 239 277 301 322 45 109
54 333 61 77 349 224 243 284 295 300 320 0 22 303 7 93 83 340 353 330 325 4 281 193 166 191 98 275 267 258 173 187 217 201 177 177 174 169 172 177 182 190 195 194 199 204 206 205 202 205 208 207 203 201 201 201 204 204 205 206 205 207 205 204 201 199 200 199 199 199 197 193 194 198 203 207 212 219 228 236 241 247 247 243 226 209 197 181 189 191 208 254 283 283 128 123 130
70 332 69 81 218 251 288 290 295 323 342 343 185 280 4 76 111 201 19 327 327 5 291 214 140 90 220 270 287 268 202 203 210 197 187 184 178 170 175 179 182 189 195 198 201 204 206 204 202 203 206 208 207 206 204 203 206 207 208 209 207 209 209 207 204 202 201 201 199 198 197 195 197 203 208 214 218 223 231 239 249 253 245 240 225 204 191 185 187 192 219 261 265 172 140 141 142
84 194 92 270 293 330 281 281 298 0 314 270 224 274 13 87 194 164 121 323 300 268 224 220 162 90 253 277 306 274 227 207 194 190 188 184 181 174 179 183 184 188 192 201 203 206 207 206 205 204 205 206 209 209 208 207 207 210 211 212 210 210 211 209 207 205 203 203 199 197 198 197 200 207 212 218 224 229 234 241 251 252 239 229 219 199 187 189 184 197 231 251 218 171 151 154 150
133 100 95 86 332 334 260 235 237 135 258 255 227 240 47 272 186 135 176 225 268 231 200 261 141 134 235 226 256 247 220 205 192 189 184 180 182 177 184 187 188 190 191 201 206 209 209 208 208 206 206 207 210 211 210 209 209 211 213 213 213 212 212 210 208 207 205 204 201 197 199 199 204 213 218 222 227 232 235 241 248 247 230 216 211 196 186 192 186 200 229 234 205 177 163 162 158
111 99 70 47 299 320 257 233 90 72 272 259 263 122 66 307 270 126 228 181 267 277 307 269 193 214 233 221 245 247 217 198 190 189 183 181 182 179 187 191 194 195 193 199 206 212 212 210 210 209 209 209 211 213 212 211 211 213 214 214 213 213 212 209 208 208 207 205 202 200 201 203 207 215 223 227 229 232 235 240 245 244 224 207 205 196 189 192 189 199 219 224 201 178 171 169 164
68 77 67 349 242 237 237 254 13 356 268 281 301 37 82 315 333 351 292 24 272 284 285 247 236 234 232 247 260 256 203 185 186 185 182 182 184 183 190 194 195 199 199 200 205 211 213 212 212 212 212 213 214 214 213 212 212 214 215 214 213 213 211 209 208 207 208 206 205 205 206 207 209 215 223 228 230 232 236 240 244 244 226 208 202 196 191 190 186 192 212 216 192 175 175 171 169
60 83 112 234 221 211 216 243 311 285 296 306 301 14 69 344 322 333 330 336 281 284 284 261 262 255 248 261 273 255 191 182 184 182 183 184 185 189 196 199 199 203 204 204 206 209 212 215 215 215 215 215 216 216 214 211 211 213 215 214 212 212 210 210 209 208 209 209 210 211 212 214 215 219 225 229 231 234 238 242 243 242 228 212 203 196 192 192 190 191 206 207 185 180 180 176 175
103 134 153 223 211 226 256 288 313 324 299 305 315 12 45 320 304 342 285 287 297 291 283 283 281 269 262 275 280 212 191 185 190 190 189 191 194 198 202 204 204 208 209 210 212 210 212 215 216 218 218 217 216 216 214 210 210 211 213 214 212 211 210 211 211 211 212 213 214 216 218 221 223 226 229 232 235 237 240 242 243 241 230 215 205 198 195 200 200 195 202 198 185 186 185 181 181
176 141 178 239 224 257 288 293 306 308 298 318 318 344 350 296 291 340 286 285 289 269 269 281 282 276 266 274 238 189 192 191 199 202 204 208 209 210 210 209 210 215 217 220 221 216 213 214 216 219 221 218 216 216 214 211 210 210 212 213 212 211 211 213 215 215 217 218 220 222 224 226 228 230 231 234 235 236 238 240 241 238 229 216 206 201 199 204 199 194 199 192 189 193 188 186 185
177 146 189 234 223 259 272 281 300 307 322 331 310 328 323 290 276 300 303 302 284 253 248 250 266 276 267 261 235 187 192 202 207 212 219 223 222 221 223 223 225 230 231 228 226 223 218 216 215 217 220 219 216 215 214 212 212 212 213 213 214 213 213 216 219 220 222 224 225 225 227 229 231 230 230 231 233 234 235 236 237 234 227 215 208 205 204 204 198 197 198 187 194 198 193 193 188
187 199 205 224 222 257 265 276 294 298 313 321 319 315 296 296 302 244 267 285 268 254 246 240 251 266 269 269 264 205 196 209 213 219 225 230 230 228 230 232 235 238 235 229 227 228 225 221 218 216 217 219 219 217 215 214 214 215 216 216 216 216 217 220 222 224 226 227 228 227 228 228 229 229 229 230 232 234 234 235 234 232 226 215 210 209 208 209 207 207 202 190 200 206 201 198 192
213 255 226 228 230 242 263 283 296 305 299 289 288 283 283 342 303 235 207 251 258 261 250 247 255 262 272 278 278 253 232 225 218 220 226 231 233 231 232 231 232 234 232 231 231 231 227 225 222 218 216 217 218 218 216 215 216 218 219 218 218 220 220 221 224 225 227 229 229 228 227 226 225 226 227 229 230 232 233 233 232 231 225 216 213 213 212 214 215 217 211 199 205 213 210 202 196
203 263 250 239 243 247 281 302 308 315 278 256 270 305 308 292 287 258 224 254 263 268 260 256 262 267 277 283 275 263 255 248 240 236 234 235 236 239 239 235 234 234 232 234 234 230 227 226 225 221 218 216 216 216 216 216 217 219 219 219 219 221 222 223 225 226 227 228 229 229 227 226 224 224 225 227 229 229 231 231 230 229 224 217 215 216 216 217 219 222 219 210 209 215 216 211 204
214 253 254 262 280 282 304 308 300 298 277 268 296 297 275 242 265 284 266 270 270 269 272 266 266 273 276 274 267 260 257 259 259 256 249 243 242 242 242 241 238 232 232 236 235 231 228 226 224 222 219 217 216 216 216 216 217 218 218 219 219 221 223 225 226 227 227 226 227 228 228 226 224 224 225 226 227 227 228 229 229 228 223 218 216 218 219 220 222 224 223 219 215 215 218 216 211
251 294 308 314 300 291 307 306 289 284 278 280 288 280 272 242 260 278 260 262 269 276 286 276 274 275 265 263 261 256 256 258 261 266 265 259 249 239 239 240 234 230 235 238 235 235 233 226 222 222 221 220 217 216 216 217 217 217 218 219 220 221 223 225 226 227 228 227 227 228 228 228 226 225 226 226 225 226 226 226 227 226 223 219 217 219 220 222 223 225 224 220 217 216 218 216 212
295 5 333 306 296 298 294 287 282 280 276 264 249 265 273 244 211 272 256 251 268 294 296 285 282 272 262 262 265 265 266 268 273 276 275 269 251 234 235 234 231 235 237 233 234 238 235 226 221 222 222 221 219 217 217 218 218 218 219 220 221 222 223 224 225 227 229 228 228 228 228 228 228 227 227 227 225 225 225 225 225 224 223 221 219 220 221 223 224 226 225 221 218 217 219 218 213
328 357 337 308 310 312 287 276 277 276 276 245 205 245 279 260 183 248 260 263 281 298 291 290 289 278 273 272 285 306 297 287 290 292 288 283 273 248 238 232 232 238 236 233 237 236 232 228 224 223 222 221 219 218 218 218 218 219 220 220 221 222 223 223 225 227 228 227 226 227 227 228 228 228 227 227 225 224 224 225 225 224 224 223 220 220 222 223 224 226 226 222 219 218 220 220 215
322 333 334 300 322 314 280 271 263 254 253 210 156 230 292 246 228 245 258 274 294 293 283 286 286 279 287 307 318 308 292 302 321 345 357 1 5 340 289 269 252 247 246 242 240 234 232 232 229 226 223 221 220 220 220 219 219 219 219 220 220 220 221 223 226 226 227 226 224 225 227 227 227 228 227 226 226 225 225 226 226 226 226 225 223 221 221 223 222 221 222 220 217 215 218 219 214
318 322 270 288 337 309 273 267 260 257 234 170 143 208 273 242 248 254 262 276 289 287 280 283 287 290 313 332 315 306 331 356 19 28 28 31 37 39 36 28 11 320 291 273 257 245 240 237 233 230 225 223 223 222 222 221 221 221 221 222 222 223 223 224 226 226 226 225 224 226 227 226 226 227 226 226 225 225 225 226 228 228 227 226 225 222 220 221 219 217 218 216 214 215 216 215 213
299 314 53 265 300 279 280 280 268 273 260 156 142 207 256 253 262 268 275 279 285 294 288 283 291 309 324 323 323 358 33 40 41 36 32 31 34 40 43 43 44 41 32 12 326 281 254 242 235 231 227 225 225 223 223 223 222 222 223 224 224 225 225 226 226 226 226 225 226 227 227 226 226 226 226 226 225 225 226 226 228 228 227 225 224 222 221 220 218 218 217 214 211 213 215 214 215
275 289 312 282 197 260 295 290 250 208 268 34 129 219 260 262 267 270 276 283 293 296 286 289 306 315 319 340 22 47 51 45 42 38 35 34 34 37 40 42 45 47 49 48 35 357 263 243 232 231 227 225 225 225 224 224 224 223 224 225 226 226 225 225 226 226 226 226 227 227 226 226 226 226 226 226 226 227 227 228 228 227 226 224 223 222 221 220 219 218 218 216 211 209 211 212 214
294 201 247 264 226 263 304 300 292 146 117 6 213 239 272 271 270 270 278 289 294 285 284 300 311 308 330 32 54 59 50 41 40 35 35 37 38 39 41 42 45 48 51 55 58 56 54 71 187 220 224 223 227 226 225 225 226 225 226 228 229 228 226 226 226 227 227 226 226 225 225 225 226 227 227 227 228 228 230 231 228 226 224 223 222 221 221 222 221 218 216 216 215 212 210 209 211
291 238 226 248 244 258 290 296 312 59 83 308 261 238 251 264 275 279 281 279 278 276 287 299 295 309 23 66 66 58 51 46 36 30 34 39 42 44 46 47 48 51 53 57 63 68 66 63 67 60 56 214 236 230 222 222 220 220 222 226 229 229 228 228 229 229 228 228 227 226 226 227 228 228 228 228 228 230 232 232 229 225 224 223 222 221 222 222 222 220 216 214 216 216 213 210 210
236 238 238 265 261 263 271 275 302 346 342 304 282 267 265 272 277 276 269 263 271 281 288 294 303 18 72 78 69 63 57 52 39 32 36 40 43 44 47 50 51 53 54 57 63 70 70 63 58 51 42 37 29 342 201 197 194 200 208 215 222 224 226 228 229 230 229 230 231 230 230 231 231 231 231 230 230 230 231 232 231 227 226 225 223 222 222 220 220 220 219 216 214 216 219 216 212
220 232 238 259 262 267 266 261 283 321 318 287 267 266 276 286 289 286 280 281 299 295 300 323 10 72 86 78 70 65 59 54 42 38 40 42 43 44 45 48 52 55 55 57 61 65 67 64 61 55 46 39 40 51 94 109 112 138 165 191 208 213 222 225 227 230 232 234 237 237 236 236 236 236 235 234 233 232 232 232 232 229 228 227 225 224 223 222 222 221 219 218 214 214 218 218 213
234 253 260 254 249 265 273 273 284 337 347 270 264 294 295 292 297 289 286 304 319 301 331 60 80 84 82 77 72 65 62 55 46 44 43 42 42 43 44 45 50 53 54 56 59 60 62 64 64 62 59 56 54 56 60 55 51 51 54 56 11 281 255 245 236 234 236 240 243 243 243 241 240 239 239 238 237 235 234 233 233 231 229 228 228 229 228 227 226 224 221 218 216 213 212 213 211
242 241 252 265 253 262 278 279 288 352 41 271 304 348 306 294 293 284 288 316 322 315 91 101 92 86 79 76 71 65 67 53 48 45 41 42 42 42 44 44 46 48 50 54 57 59 61 64 65 64 64 63 62 62 63 58 51 44 40 35 12 335 309 295 282 270 265 263 259 255 253 251 247 245 243 242 241 239 236 234 233 232 230 229 230 231 231 230 228 227 223 219 218 217 214 211 206
256 249 254 278 270 288 297 293 307 10 18 277 311 323 293 290 280 279 296 345 9 37 87 93 85 86 76 71 71 66 64 51 47 44 40 42 41 42 43 43 45 46 48 52 55 58 60 61 63 64 63 62 62 64 63 59 56 55 53 54 51 45 35 341 303 288 281 278 276 274 271 268 263 257 251 247 245 243 240 237 235 235 233 232 231 230 230 230 229 228 225 222 219 217 218 214 207
259 255 260 273 279 319 284 295 327 338 287 262 299 296 283 280 270 281 335 64 79 66 77 77 77 85 78 73 71 63 63 56 50 47 42 42 41 41 43 44 46 48 48 49 52 55 57 60 64 65 64 62 62 63 62 58 57 56 54 56 58 55 53 40 1 318 295 283 279 278 278 278 276 271 264 256 251 249 246 243 241 239 237 236 234 232 230 230 230 228 227 225 220 214 215 215 212
263 226 217 244 259 230 231 275 328 330 322 336 9 323 289 249 258 279 48 84 81 72 81 77 71 79 80 75 66 60 62 61 58 54 44 44 44 42 43 46 49 50 49 49 50 53 55 59 64 67 67 66 65 64 63 62 61 58 54 53 52 50 47 38 26 11 346 310 297 295 288 285 285 282 277 271 265 260 256 253 249 245 243 241 238 236 234 234 233 231 229 226 222 217 216 217 213
289 236 217 221 229 235 247 330 9 14 336 323 47 6 291 250 255 266 136 92 62 58 72 76 71 71 75 70 64 62 59 57 58 57 51 48 48 46 44 45 48 50 50 51 54 55 56 58 61 64 66 66 67 67 68 69 65 59 55 52 48 44 40 34 28 24 16 350 316 312 306 301 298 294 291 286 279 272 267 263 259 254 250 247 244 242 239 238 236 235 232 228 225 224 221 219 216
277 251 213 197 196 208 243 18 29 45 255 278 72 102 274 269 255 259 154 98 80 71 68 73 71 63 69 69 64 63 58 57 53 48 49 50 49 46 43 42 45 48 50 54 56 57 58 58 59 60 61 62 63 65 68 69 67 62 59 56 49 42 36 31 27 28 30 25 3 332 324 325 319 313 308 301 292 285 278 273 268 264 259 255 252 248 244 241 241 240 238 234 231 229 224 221 221
231 254 125 113 129 159 184 118 170 228 250 305 277 181 256 279 247 244 125 103 95 88 77 73 75 70 72 68 61 60 58 62 61 48 39 43 50 52 48 45 46 49 51 54 55 56 58 59 59 59 59 59 59 62 64 64 64 63 61 59 53 46 39 32 29 28 30 31 27 12 342 328 326 326 323 317 310 300 293 286 280 274 268 263 259 255 252 249 247 245 243 239 236 233 229 226 226
236 233 114 102 125 153 167 140 212 258 344 308 258 186 231 274 262 240 121 123 134 123 105 87 82 77 76 72 64 60 56 60 67 65 45 37 45 52 55 53 50 51 53 55 56 56 58 59 61 61 58 56 57 59 61 61 61 61 59 56 52 48 43 39 35 31 29 29 32 28 10 342 324 319 320 323 324 316 310 303 294 285 279 274 269 265 261 257 253 250 247 244 241 238 235 233 232
237 167 93 61 69 109 122 151 153 6 349 254 232 186 197 269 283 300 120 147 166 143 114 96 88 80 76 73 66 56 54 55 58 67 58 46 46 51 57 57 54 52 54 56 58 58 59 60 62 61 57 56 56 58 59 59 58 58 55 52 50 46 42 40 37 33 29 25 25 25 22 15 358 336 322 315 316 319 317 312 306 298 292 287 280 275 270 266 261 257 254 251 248 245 241 238 237
122 77 51 22 8 16 33 80 89 52 285 244 223 201 190 265 287 244 172 181 161 146 130 122 103 84 79 69 64 54 51 56 51 57 56 52 53 54 56 56 53 53 54 56 57 57 59 60 62 62 59 58 58 58 59 58 57 56 54 52 50 45 41 38 35 31 27 24 21 18 17 19 18 12 359 339 327 323 315 308 306 304 301 297 291 286 281 276 271 266 261 257 253 250 248 245 242
91 74 62 18 339 9 29 8 49 102 252 258 239 204 184 223 267 297 335 24 137 142 147 143 123 102 94 79 74 65 59 62 56 54 50 48 48 47 50 51 50 51 52 53 54 56 57 58 61 61 59 58 59 60 61 59 58 57 55 53 51 47 44 41 37 32 27 24 22 18 16 15 14 17 16 10 359 346 330 315 306 302 301 301 301 300 294 288 283 276 269 264 259 257 254 251 247
88 86 83 39 319 0 7 312 124 207 247 258 243 157 177 226 251 17 12 25 71 102 122 129 123 120 117 104 97 81 72 71 63 58 49 45 42 41 46 48 48 48 48 50 52 55 56 57 59 60 57 57 58 60 62 61 60 58 56 55 53 50 48 45 41 37 32 28 25 20 18 14 10 8 6 6 3 357 349 338 322 309 303 302 304 307 305 299 294 287 280 274 268 265 262 258 254
137 143 138 151 185 206 261 254 245 267 266 262 265 79 239 258 309 34 39 46 67 85 97 108 118 124 129 127 118 91 74 66 63 62 53 49 45 44 48 48 49 48 46 50 52 53 55 55 57 58 57 57 58 59 61 62 62 60 59 58 55 53 51 48 45 41 38 36 33 30 26 21 15 9 2 357 352 346 345 343 337 325 313 305 304 307 308 306 301 294 289 283 278 274 270 267 263
174 165 144 149 168 195 236 232 223 259 275 285 299 299 211 223 0 44 60 71 78 90 101 105 107 117 125 118 106 91 78 65 63 66 59 54 51 50 51 50 50 49 48 49 50 52 54 53 54 54 54 55 57 58 58 59 60 60 60 59 57 55 53 51 50 46 42 39 37 36 34 30 26 19 12 3 354 344 338 335 334 333 326 315 309 309 309 308 306 300 294 289 285 282 277 272 269
231 145 118 168 194 185 237 245 204 205 289 292 275 240 207 148 93 63 75 77 76 84 98 106 108 114 114 108 104 100 90 76 70 68 60 55 56 55 53 51 51 50 50 49 47 50 52 52 53 53 52 52 53 54 54 55 55 56 56 55 54 53 50 49 47 45 43 40 38 36 35 33 30 26 22 16 9 2 352 342 332 328 326 320 315 313 311 310 308 304 299 293 288 286 282 278 275
279 112 171 222 185 138 150 282 261 124 266 259 217 243 299 88 87 73 86 81 81 90 105 116 126 124 120 127 128 121 110 100 91 87 84 72 63 58 55 55 53 52 52 49 47 48 50 51 52 52 51 50 49 49 49 49 50 50 49 49 48 47 46 44 42 40 38 36 34 33 32 31 30 27 24 20 17 14 10 4 353 341 330 321 315 314 314 314 311 307 303 298 294 291 286 283 280
125 164 221 233 64 78 106 257 306 286 249 258 243 244 242 205 236 157 123 118 117 140 141 126 131 134 143 161 159 160 154 143 133 118 109 89 70 59 59 60 59 59 58 55 54 53 55 55 52 52 50 48 47 47 48 47 46 45 43 42 40 39 39 38 36 34 30 28 26 24 22 22 23 22 20 16 14 14 13 13 9 3 354 341 329 321 316 316 315 311 307 303 300 297 291 287 284
129 181 218 127 108 288 293 146 223 242 249 274 265 250 242 227 214 178 173 171 161 171 166 153 168 175 176 180 187 197 182 165 151 134 126 96 76 64 64 65 66 70 67 65 67 63 62 60 56 55 53 51 50 49 47 45 43 41 38 35 34 32 30 29 26 24 22 20 17 15 14 13 12 11 10 8 6 6 6 7 8 6 4 359 352 343 331 322 317 313 311 308 305 301 295 291 289
48 39 343 55 165 194 211 183 181 212 240 262 258 249 252 247 208 172 178 178 169 173 175 179 189 190 192 187 190 201 191 178 155 133 126 98 87 78 74 70 69 72 69 71 76 71 67 64 61 62 58 56 55 51 49 45 41 36 31 27 25 23 22 19 16 13 11 10 8 7 6 5 4 3 1 359 357 357 357 357 359 359 359 359 357 354 348 338 327 317 312 309 308 305 299 295 293
52 34 317 286 245 200 254 239 158 159 208 242 250 250 252 264 216 164 174 176 172 171 168 184 201 199 197 192 190 197 191 178 157 134 127 112 108 108 93 78 71 71 72 80 86 82 79 69 60 59 53 52 53 51 52 51 45 40 31 24 18 16 16 13 9 6 3 2 -0 359 359 357 356 354 353 351 349 349 348 347 348 350 352 352 351 350 349 345 338 329 320 313 309 306 302 298 296
139 174 210 204 204 221 273 264 211 159 184 197 222 257 268 281 303 151 163 165 168 171 170 187 204 198 193 197 195 193 190 183 174 162 157 150 149 157 146 135 111 87 77 84 88 80 76 66 54 48 44 43 43 43 42 38 36 34 27 20 9 4 4 2 1 358 355 354 353 353 352 350 348 346 345 344 341 340 341 340 340 341 343 344 343 343 342 341 339 333 327 320 314 309 305 301 298